2016-09-10 00:07:21 r, 18.67m,0000000003Hz,0000151578c,0000000.329s, 028.6C,00002195
2016-09-10 00:17:21 r, 18.24m,0000000005Hz,0000103014c,0000000.224s, 028.6C,00002195
2016-09-10 00:27:21 r, 17.51m,0000000009Hz,0000052548c,0000000.114s, 028.6C,00002195
2016-09-10 00:37:21 r, 18.70m,0000000003Hz,0000156401c,0000000.339s, 028.6C,00002195
2016-09-10 00:47:21 r, 18.72m,0000000003Hz,0000159477c,0000000.346s, 028.6C,00002195
2016-09-10 00:57:21 r, 18.71m,0000000003Hz,0000158335c,0000000.344s, 028.6C,00002195
2016-09-10 01:07:21 r, 18.28m,0000000004Hz,0000106429c,0000000.231s, 028.3C,00002195
2016-09-10 01:17:21 r, 16.88m,0000000016Hz,0000029350c,0000000.064s, 028.3C,00002195
2016-09-10 01:27:21 r, 17.27m,0000000010Hz,0000042367c,0000000.092s, 028.6C,00002195
2016-09-10 01:37:21 r, 17.82m,0000000007Hz,0000069756c,0000000.151s, 028.6C,00002195
2016-09-10 01:47:22 r, 18.61m,0000000003Hz,0000143616c,0000000.312s, 028.6C,00002195
2016-09-10 01:57:21 r, 18.38m,0000000004Hz,0000116814c,0000000.254s, 028.6C,00002195
2016-09-10 02:07:21 r, 18.67m,0000000003Hz,0000152817c,0000000.332s, 028.6C,00002195
2016-09-10 02:17:23 r, 18.69m,0000000003Hz,0000155474c,0000000.337s, 028.3C,00002195
2016-09-10 02:27:21 r, 18.16m,0000000005Hz,0000095154c,0000000.206s, 028.0C,00002195
2016-09-10 02:37:21 r, 18.73m,0000000003Hz,0000161205c,0000000.350s, 028.0C,00002195
2016-09-10 02:47:21 r, 18.78m,0000000003Hz,0000168628c,0000000.366s, 027.7C,00002195
2016-09-10 02:57:21 r, 18.77m,0000000002Hz,0000167927c,0000000.364s, 027.7C,00002195
2016-09-10 03:07:21 r, 18.78m,0000000003Hz,0000169001c,0000000.367s, 027.3C,00002195
2016-09-10 03:17:21 r, 18.78m,0000000002Hz,0000168940c,0000000.367s, 027.3C,00002195
2016-09-10 03:27:23 r, 18.77m,0000000002Hz,0000166968c,0000000.362s, 027.3C,00002195
2016-09-10 03:37:21 r, 18.78m,0000000003Hz,0000167982c,0000000.365s, 027.0C,00002195
2016-09-10 03:47:22 r, 18.77m,0000000003Hz,0000167046c,0000000.363s, 027.0C,00002195
2016-09-10 03:57:21 r, 18.76m,0000000003Hz,0000165353c,0000000.359s, 027.0C,00002195
2016-09-10 04:07:21 r, 18.76m,0000000003Hz,0000165693c,0000000.360s, 026.7C,00002195
2016-09-10 04:17:21 r, 18.76m,0000000002Hz,0000165059c,0000000.358s, 026.7C,00002195
2016-09-10 04:27:21 r, 18.75m,0000000003Hz,0000164198c,0000000.356s, 026.7C,00002195
2016-09-10 04:37:21 r, 18.75m,0000000002Hz,0000164113c,0000000.356s, 026.7C,00002195
2016-09-10 04:47:24 r, 18.75m,0000000003Hz,0000164265c,0000000.356s, 026.7C,00002195
2016-09-10 04:57:22 r, 18.75m,0000000003Hz,0000164304c,0000000.357s, 026.7C,00002195
2016-09-10 05:07:22 r, 18.74m,0000000002Hz,0000163266c,0000000.354s, 026.7C,00002195
2016-09-10 05:17:21 r, 18.74m,0000000003Hz,0000162130c,0000000.352s, 026.7C,00002195
2016-09-10 05:27:22 r, 18.70m,0000000003Hz,0000157219c,0000000.341s, 026.4C,00002195
2016-09-10 05:37:21 r, 18.62m,0000000003Hz,0000146863c,0000000.319s, 026.4C,00002195
2016-09-10 05:47:21 r, 18.38m,0000000004Hz,0000117012c,0000000.254s, 026.4C,00002195
2016-09-10 05:57:22 r, 17.76m,0000000007Hz,0000066111c,0000000.143s, 026.4C,00002195
2016-09-10 06:07:21 r, 16.64m,0000000020Hz,0000023623c,0000000.051s, 026.4C,00002195
2016-09-10 06:17:22 r, 14.97m,0000000090Hz,0000005067c,0000000.011s, 026.1C,00002195
2016-09-10 06:27:21 r, 12.85m,0000000644Hz,0000000000c,0000000.000s, 026.1C,00002195
2016-09-10 06:37:21 r, 10.79m,0000004289Hz,0000000000c,0000000.000s, 026.1C,00002195
2016-09-10 06:47:22 r, 09.01m,0000022064Hz,0000000000c,0000000.000s, 026.1C,00002195
2016-09-10 06:57:21 r, 07.73m,0000072068Hz,0000000000c,0000000.000s, 026.1C,00002195
2016-09-10 07:07:21 r, 06.90m,0000155482Hz,0000000000c,0000000.000s, 026.1C,00002195
2016-09-10 07:17:21 r, 06.34m,0000259509Hz,0000000000c,0000000.000s, 025.7C,00002195
2016-09-10 07:27:21 r, 05.96m,0000367124Hz,0000000000c,0000000.000s, 026.1C,00002195
2016-09-10 07:37:21 r, 00.00m,0000470657Hz,0000000000c,0000000.000s, 026.1C,00002195
2016-09-10 07:47:21 r, 00.00m,0000563962Hz,0000000000c,0000000.000s, 026.4C,00002195
2016-09-10 07:57:21 r, 00.00m,0000563944Hz,0000000000c,0000000.000s, 027.0C,00002195
2016-09-10 08:07:21 r, 00.00m,0000564012Hz,0000000000c,0000000.000s, 027.3C,00002195
2016-09-10 08:17:22 r, 00.00m,0000564004Hz,0000000000c,0000000.000s, 027.3C,00002195
2016-09-10 08:27:21 r, 00.00m,0000564004Hz,0000000000c,0000000.000s, 027.7C,00002195
2016-09-10 08:37:21 r, 00.00m,0000564043Hz,0000000000c,0000000.000s, 028.3C,00002195
2016-09-10 08:47:21 r, 00.00m,0000564189Hz,0000000000c,0000000.000s, 028.6C,00002195
2016-09-10 08:57:21 r, 00.00m,0000564247Hz,0000000000c,0000000.000s, 029.6C,00002195
2016-09-10 09:07:22 r, 00.00m,0000564470Hz,0000000000c,0000000.000s, 030.9C,00002195
2016-09-10 09:17:22 r, 00.00m,0000564527Hz,0000000000c,0000000.000s, 032.2C,00002195
2016-09-10 09:27:21 r, 00.00m,0000564765Hz,0000000000c,0000000.000s, 033.8C,00002195
2016-09-10 09:37:21 r, 00.00m,0000564772Hz,0000000000c,0000000.000s, 034.8C,00002195
2016-09-10 09:47:21 r, 00.00m,0000564858Hz,0000000000c,0000000.000s, 035.4C,00002195
2016-09-10 09:57:21 r, 00.00m,0000564975Hz,0000000000c,0000000.000s, 036.4C,00002195
2016-09-10 10:07:21 r, 00.00m,0000564981Hz,0000000000c,0000000.000s, 037.3C,00002195
2016-09-10 10:17:21 r, 00.00m,0000565168Hz,0000000000c,0000000.000s, 038.6C,00002195
2016-09-10 10:27:21 r, 00.00m,0000565211Hz,0000000000c,0000000.000s, 039.3C,00002195
2016-09-10 10:37:21 r, 00.00m,0000565352Hz,0000000000c,0000000.000s, 040.2C,00002195
2016-09-10 10:47:21 r, 00.00m,0000565406Hz,0000000000c,0000000.000s, 040.6C,00002195
2016-09-10 10:57:21 r, 00.00m,0000565331Hz,0000000000c,0000000.000s, 041.2C,00002195
2016-09-10 11:07:21 r, 00.00m,0000565463Hz,0000000000c,0000000.000s, 042.2C,00002195
2016-09-10 11:17:21 r, 00.00m,0000565594Hz,0000000000c,0000000.000s, 043.1C,00002195
2016-09-10 11:27:22 r, 00.00m,0000565529Hz,0000000000c,0000000.000s, 043.8C,00002195
2016-09-10 11:37:21 r, 00.00m,0000565638Hz,0000000000c,0000000.000s, 044.4C,00002195
2016-09-10 11:47:21 r, 00.00m,0000565514Hz,0000000000c,0000000.000s, 043.5C,00002195
2016-09-10 11:57:21 r, 00.00m,0000565457Hz,0000000000c,0000000.000s, 042.5C,00002195
2016-09-10 12:07:21 r, 00.00m,0000565356Hz,0000000000c,0000000.000s, 041.5C,00002195
2016-09-10 12:17:21 r, 00.00m,0000565629Hz,0000000000c,0000000.000s, 043.8C,00002195
2016-09-10 12:27:23 r, 00.00m,0000565773Hz,0000000000c,0000000.000s, 045.7C,00002195
2016-09-10 12:37:21 r, 00.00m,0000565840Hz,0000000000c,0000000.000s, 047.7C,00002195
2016-09-10 12:47:21 r, 00.00m,0000565863Hz,0000000000c,0000000.000s, 048.3C,00002195
2016-09-10 12:57:21 r, 00.00m,0000565617Hz,0000000000c,0000000.000s, 045.7C,00002195
2016-09-10 13:07:21 r, 00.00m,0000565825Hz,0000000000c,0000000.000s, 047.0C,00002195
2016-09-10 13:17:21 r, 00.00m,0000565923Hz,0000000000c,0000000.000s, 048.3C,00002195
2016-09-10 13:27:21 r, 00.00m,0000565724Hz,0000000000c,0000000.000s, 047.3C,00002195
2016-09-10 13:37:21 r, 00.00m,0000565743Hz,0000000000c,0000000.000s, 046.4C,00002195
2016-09-10 13:47:22 r, 00.00m,0000565836Hz,0000000000c,0000000.000s, 047.0C,00002195
2016-09-10 13:57:21 r, 00.00m,0000565723Hz,0000000000c,0000000.000s, 047.0C,00002195
2016-09-10 14:07:22 r, 00.00m,0000565896Hz,0000000000c,0000000.000s, 048.3C,00002195
2016-09-10 14:17:24 r, 00.00m,0000565907Hz,0000000000c,0000000.000s, 049.3C,00002195
2016-09-10 14:27:22 r, 00.00m,0000565765Hz,0000000000c,0000000.000s, 048.0C,00002195
2016-09-10 14:37:22 r, 00.00m,0000565596Hz,0000000000c,0000000.000s, 046.7C,00002195
2016-09-10 14:47:22 r, 00.00m,0000565765Hz,0000000000c,0000000.000s, 048.3C,00002195
2016-09-10 14:57:22 r, 00.00m,0000565723Hz,0000000000c,0000000.000s, 048.0C,00002195
2016-09-10 15:07:22 r, 00.00m,0000565604Hz,0000000000c,0000000.000s, 046.7C,00002195
2016-09-10 15:17:22 r, 00.00m,0000565570Hz,0000000000c,0000000.000s, 046.4C,00002195
2016-09-10 15:27:24 r, 00.00m,0000565624Hz,0000000000c,0000000.000s, 046.7C,00002195
2016-09-10 15:37:22 r, 00.00m,0000565596Hz,0000000000c,0000000.000s, 046.7C,00002195
2016-09-10 15:47:22 r, 00.00m,0000565677Hz,0000000000c,0000000.000s, 046.7C,00002195
2016-09-10 15:57:22 r, 00.00m,0000565642Hz,0000000000c,0000000.000s, 047.0C,00002195
2016-09-10 16:07:22 r, 00.00m,0000565629Hz,0000000000c,0000000.000s, 046.7C,00002195
2016-09-10 16:17:22 r, 00.00m,0000565535Hz,0000000000c,0000000.000s, 046.4C,00002195
2016-09-10 16:27:23 r, 00.00m,0000565421Hz,0000000000c,0000000.000s, 045.7C,00002195
2016-09-10 16:37:22 r, 00.00m,0000565392Hz,0000000000c,0000000.000s, 044.8C,00002195
2016-09-10 16:47:22 r, 00.00m,0000565391Hz,0000000000c,0000000.000s, 045.1C,00002195
2016-09-10 16:57:22 r, 00.00m,0000565397Hz,0000000000c,0000000.000s, 045.1C,00002195
2016-09-10 17:07:22 r, 00.00m,0000565372Hz,0000000000c,0000000.000s, 045.1C,00002195
2016-09-10 17:17:22 r, 00.00m,0000565172Hz,0000000000c,0000000.000s, 043.8C,00002195
2016-09-10 17:27:24 r, 00.00m,0000565085Hz,0000000000c,0000000.000s, 041.9C,00002195
2016-09-10 17:37:22 r, 00.00m,0000564969Hz,0000000000c,0000000.000s, 040.6C,00002195
2016-09-10 17:47:22 r, 00.00m,0000564933Hz,0000000000c,0000000.000s, 039.9C,00002195
2016-09-10 17:57:22 r, 00.00m,0000564926Hz,0000000000c,0000000.000s, 039.9C,00002195
2016-09-10 18:07:22 r, 00.00m,0000564926Hz,0000000000c,0000000.000s, 040.2C,00002195
2016-09-10 18:17:22 r, 00.00m,0000564981Hz,0000000000c,0000000.000s, 040.6C,00002195
2016-09-10 18:27:22 r, 00.00m,0000564978Hz,0000000000c,0000000.000s, 040.6C,00002195
2016-09-10 18:37:22 r, 00.00m,0000564840Hz,0000000000c,0000000.000s, 039.6C,00002195
2016-09-10 18:47:22 r, 00.00m,0000564747Hz,0000000000c,0000000.000s, 038.6C,00002195
2016-09-10 18:57:22 r, 00.00m,0000564814Hz,0000000000c,0000000.000s, 038.3C,00002195
2016-09-10 19:07:24 r, 00.00m,0000564720Hz,0000000000c,0000000.000s, 038.0C,00002195
2016-09-10 19:17:22 r, 00.00m,0000519126Hz,0000000000c,0000000.000s, 037.7C,00002195
2016-09-10 19:27:22 r, 06.31m,0000266343Hz,0000000000c,0000000.000s, 037.0C,00002195
2016-09-10 19:37:22 r, 06.94m,0000150071Hz,0000000000c,0000000.000s, 036.0C,00002195
2016-09-10 19:47:23 r, 07.23m,0000113920Hz,0000000000c,0000000.000s, 035.1C,00002195
2016-09-10 19:57:23 r, 08.30m,0000042605Hz,0000000000c,0000000.000s, 034.4C,00002195
2016-09-10 20:07:22 r, 09.85m,0000010236Hz,0000000000c,0000000.000s, 034.1C,00002195
2016-09-10 20:17:22 r, 11.79m,0000001707Hz,0000000000c,0000000.000s, 033.5C,00002195
2016-09-10 20:27:22 r, 13.83m,0000000262Hz,0000000000c,0000000.000s, 033.5C,00002195
2016-09-10 20:37:23 r, 15.57m,0000000051Hz,0000008889c,0000000.019s, 033.1C,00002195
2016-09-10 20:47:22 r, 16.44m,0000000023Hz,0000019692c,0000000.043s, 033.1C,00002195
2016-09-10 20:57:22 r, 16.55m,0000000022Hz,0000021693c,0000000.047s, 032.5C,00002195
2016-09-10 21:07:24 r, 16.10m,0000000032Hz,0000014375c,0000000.031s, 032.8C,00002195
2016-09-10 21:17:22 r, 16.20m,0000000029Hz,0000015726c,0000000.034s, 032.5C,00002195
2016-09-10 21:27:22 r, 16.40m,0000000024Hz,0000018970c,0000000.041s, 032.5C,00002195
2016-09-10 21:37:23 r, 16.85m,0000000016Hz,0000028624c,0000000.062s, 032.5C,00002195
2016-09-10 21:47:23 r, 16.96m,0000000014Hz,0000031773c,0000000.069s, 032.2C,00002195
2016-09-10 21:57:24 r, 16.67m,0000000019Hz,0000024280c,0000000.053s, 032.2C,00002195
2016-09-10 22:07:23 r, 16.72m,0000000019Hz,0000025317c,0000000.055s, 032.2C,00002195
2016-09-10 22:17:22 r, 17.02m,0000000014Hz,0000033713c,0000000.073s, 032.2C,00002195
2016-09-10 22:27:24 r, 16.49m,0000000022Hz,0000020706c,0000000.045s, 032.2C,00002195
2016-09-10 22:37:22 r, 16.29m,0000000027Hz,0000017031c,0000000.037s, 031.9C,00002195
2016-09-10 22:47:22 r, 16.34m,0000000026Hz,0000018032c,0000000.039s, 031.9C,00002195
2016-09-10 22:57:22 r, 16.34m,0000000025Hz,0000017963c,0000000.039s, 031.9C,00002195
2016-09-10 23:07:24 r, 16.79m,0000000017Hz,0000027030c,0000000.059s, 031.9C,00002195
2016-09-10 23:17:22 r, 16.87m,0000000016Hz,0000029170c,0000000.063s, 031.9C,00002195
2016-09-10 23:27:23 r, 17.04m,0000000014Hz,0000034084c,0000000.074s, 031.5C,00002195
2016-09-10 23:37:22 r, 17.15m,0000000012Hz,0000037688c,0000000.082s, 031.5C,00002195
2016-09-10 23:47:23 r, 16.81m,0000000017Hz,0000027413c,0000000.059s, 031.5C,00002195
2016-09-10 23:57:22 r, 16.86m,0000000016Hz,0000028686c,0000000.062s, 031.5C,00002195
